Date String (YYYY-MM-DD hh:mm:ss) UTC,Instrument flags,Ambient pressure (hPa),Sample flow (lpm),Bypass flow (lpm),Sample temperature (°C),Ambient temperature (°C),ASC tube jacket temperature (°C),LED temperature (°C),Box temperature (°C),Sample RH (%),Span deviation,Mass concentration (μg/m³),Mass concentration (μg/m³),Mass concentration (μg/m³)
DateTimeUTC,F1_M11,P_M11,Q1_M11,Q2_M11,T1_M11,T2_M11,T3_M11,T4_M11,T5_M11,U1_M11,ZSPAN_M11,X0_M11,X2_M11,X1_M11
2023-01-10 08:00:00,,0818.9,5.02,0.00,22.1,21.5,00.0,30.9,23.9,13.8,0000.0,0009.31,0004.22,0003.74
2023-01-10 08:01:00,,0818.9,5.01,0.00,22.1,21.1,00.0,30.9,23.8,13.9,0000.0,0009.50,0004.37,0003.86
2023-01-10 08:02:00,,0818.8,5.00,0.00,22.1,20.8,00.0,31.0,23.7,13.9,0000.0,0009.54,0004.50,0003.98
2023-01-10 08:03:00,,0818.9,5.00,0.00,22.0,20.8,00.0,30.9,23.7,13.9,0000.0,0009.76,0004.64,0004.09
2023-01-10 08:04:00,,0819.0,5.01,0.00,22.0,20.8,00.0,30.9,23.8,13.9,0000.0,0009.92,0004.76,0004.24
2023-01-10 08:05:00,,0819.1,5.00,0.00,22.0,20.6,00.0,31.0,23.7,13.9,0000.0,0010.16,0004.93,0004.41
2023-01-10 08:06:00,,0819.0,5.01,0.00,22.0,20.4,00.0,31.0,23.6,13.9,0000.0,0010.52,0005.12,0004.58
2023-01-10 08:07:00,,0818.9,5.00,0.00,22.0,20.2,00.0,30.9,23.5,14.1,0000.0,0010.75,0005.29,0004.72
2023-01-10 08:08:00,,0818.9,5.00,0.00,21.9,20.2,00.0,30.9,23.5,14.0,0000.0,0009.82,0005.42,0004.85
2023-01-10 08:09:00,,0818.9,4.97,0.00,21.9,20.1,00.0,30.9,23.5,14.0,0000.0,0009.76,0005.47,0004.92
2023-01-10 08:10:00,,0819.1,4.99,0.00,21.9,20.0,00.0,30.9,23.4,14.1,0000.0,0009.69,0005.47,0004.92
2023-01-10 08:11:00,,0819.2,5.00,0.00,21.8,19.8,00.0,30.9,23.3,14.2,0000.0,0009.20,0005.47,0004.93
2023-01-10 08:12:00,,0819.1,4.99,0.00,21.7,19.6,00.0,30.8,23.2,14.3,0000.0,0009.40,0005.47,0004.93
2023-01-10 08:13:00,,0819.1,5.01,0.00,21.7,19.6,00.0,30.8,23.2,14.3,0000.0,0009.98,0005.48,0004.96
2023-01-10 08:14:00,,0819.2,5.02,0.00,21.6,19.6,00.0,30.8,23.1,14.5,0000.0,0010.29,0005.53,0005.00
2023-01-10 08:15:00,,0819.1,4.99,0.00,21.6,19.6,00.0,30.7,23.1,14.5,0000.0,0010.45,0005.59,0005.06
2023-01-10 08:16:00,,0819.1,5.00,0.00,21.6,19.7,00.0,30.7,23.2,14.6,0000.0,0010.44,0005.62,0005.09
2023-01-10 08:17:00,,0819.1,5.00,0.00,21.6,19.9,00.0,30.7,23.3,14.7,0000.0,0010.49,0005.70,0005.16
2023-01-10 08:18:00,,0819.1,5.00,0.00,21.6,19.9,00.0,30.7,23.3,14.9,0000.0,0010.57,0005.81,0005.29
2023-01-10 08:19:00,,0819.1,5.00,0.00,21.6,20.0,00.0,30.6,23.2,15.0,0000.0,0010.85,0005.96,0005.42
2023-01-10 08:20:00,,0819.2,4.99,0.00,21.6,20.0,00.0,30.6,23.2,15.0,0000.0,0011.15,0006.11,0005.54
2023-01-10 08:21:00,,0819.3,5.00,0.00,21.6,20.2,00.0,30.6,23.3,15.0,0000.0,0011.96,0006.25,0005.66
2023-01-10 08:22:00,,0819.2,5.01,0.00,21.7,21.3,00.0,30.6,23.6,15.0,0000.0,0012.28,0006.37,0005.78
2023-01-10 08:23:00,,0819.2,4.99,0.00,21.8,22.4,00.0,30.6,23.9,14.9,0000.0,0012.14,0006.47,0005.89
2023-01-10 08:24:00,,0818.9,5.00,0.00,22.0,22.7,00.0,30.6,24.0,14.8,0000.0,0011.87,0006.64,0006.00
2023-01-10 08:25:00,,0819.0,4.99,0.00,22.0,22.3,00.0,30.7,24.0,14.6,0000.0,0011.92,0006.77,0006.10
2023-01-10 08:26:00,,0819.0,5.00,0.00,22.0,21.9,00.0,30.7,23.9,14.2,0000.0,0011.89,0006.78,0006.12
2023-01-10 08:27:00,,0819.0,5.00,0.00,22.0,21.5,00.0,30.8,23.9,14.4,0000.0,0011.94,0006.84,0006.19
2023-01-10 08:28:00,,0819.1,5.01,0.00,22.0,21.1,00.0,30.8,23.7,14.5,0000.0,0012.11,0006.91,0006.25
2023-01-10 08:29:00,,0819.1,5.00,0.00,22.0,20.7,00.0,30.8,23.6,14.6,0000.0,0012.28,0006.95,0006.25
2023-01-10 08:30:00,,0819.1,4.99,0.00,21.9,20.5,00.0,30.8,23.5,14.7,0000.0,0012.94,0006.92,0006.25
2023-01-10 08:31:00,,0819.0,5.00,0.00,21.9,20.3,00.0,30.8,23.4,14.6,0000.0,0013.18,0006.89,0006.23
2023-01-10 08:32:00,,0818.9,5.01,0.00,21.8,20.2,00.0,30.8,23.4,14.5,0000.0,0012.64,0006.86,0006.21
2023-01-10 08:33:00,,0818.8,5.00,0.00,21.8,20.2,00.0,30.8,23.4,14.5,0000.0,0012.72,0006.84,0006.18
2023-01-10 08:34:00,,0818.9,5.00,0.00,21.8,20.2,00.0,30.8,23.5,14.5,0000.0,0013.43,0006.83,0006.16
2023-01-10 08:35:00,,0818.9,5.00,0.00,21.8,20.2,00.0,30.8,23.5,14.3,0000.0,0013.49,0006.75,0006.11
2023-01-10 08:36:00,,0818.9,5.00,0.00,21.8,20.3,00.0,30.8,23.5,14.2,0000.0,0014.21,0006.63,0006.03
2023-01-10 08:37:00,,0818.9,5.00,0.00,21.8,20.4,00.0,30.8,23.6,13.8,0000.0,0014.11,0006.50,0005.87
2023-01-10 08:38:00,,0818.9,5.00,0.00,21.8,20.4,00.0,30.8,23.6,13.1,0000.0,0013.88,0006.24,0005.60
2023-01-10 08:39:00,,0818.9,5.00,0.00,21.8,20.5,00.0,30.8,23.6,12.9,0000.0,0013.43,0005.89,0005.28
2023-01-10 08:40:00,,0818.9,5.00,0.00,21.8,20.5,00.0,30.7,23.6,13.0,0000.0,0012.89,0005.55,0004.98
2023-01-10 08:41:00,,0818.9,5.00,0.00,21.8,20.5,00.0,30.7,23.6,12.8,0000.0,0011.73,0005.23,0004.68
2023-01-10 08:42:00,,0819.0,5.00,0.00,21.9,20.5,00.0,30.7,23.6,12.6,0000.0,0011.03,0004.91,0004.40
2023-01-10 08:43:00,,0819.0,5.00,0.00,21.9,20.5,00.0,30.7,23.6,12.9,0000.0,0010.48,0004.59,0004.10
2023-01-10 08:44:00,,0818.9,5.00,0.00,21.9,20.6,00.0,30.7,23.6,13.6,0000.0,0009.95,0004.39,0003.93
2023-01-10 08:45:00,,0819.0,4.99,0.00,21.9,20.6,00.0,30.7,23.6,13.4,0000.0,0008.95,0004.14,0003.70
2023-01-10 08:46:00,,0819.1,5.00,0.00,21.9,20.5,00.0,30.7,23.6,13.9,0000.0,0008.47,0003.97,0003.56
2023-01-10 08:47:00,,0819.0,5.00,0.00,21.8,20.5,00.0,30.7,23.6,14.1,0000.0,0007.78,0003.92,0003.49
2023-01-10 08:48:00,,0818.9,5.00,0.00,21.8,20.5,00.0,30.7,23.5,13.9,0000.0,0007.48,0003.94,0003.50
2023-01-10 08:49:00,,0818.9,5.00,0.00,21.8,20.5,00.0,30.7,23.5,13.5,0000.0,0007.51,0003.98,0003.55
2023-01-10 08:50:00,,0818.8,4.99,0.00,21.8,20.5,00.0,30.7,23.5,13.4,0000.0,0007.50,0004.06,0003.64
2023-01-10 08:51:00,,0818.9,5.00,0.00,21.8,20.4,00.0,30.7,23.5,13.0,0000.0,0007.50,0004.10,0003.68
2023-01-10 08:52:00,,0818.8,5.00,0.00,21.8,20.4,00.0,30.7,23.5,12.6,0000.0,0007.31,0004.03,0003.65
2023-01-10 08:53:00,,0818.9,5.00,0.00,21.8,20.4,00.0,30.7,23.6,12.5,0000.0,0007.20,0004.00,0003.65
2023-01-10 08:54:00,,0818.9,5.00,0.00,21.8,20.5,00.0,30.7,23.6,13.0,0000.0,0007.20,0003.99,0003.64
2023-01-10 08:55:00,,0818.9,5.00,0.00,21.8,20.4,00.0,30.7,23.5,13.0,0000.0,0007.04,0003.91,0003.59
2023-01-10 08:56:00,,0818.9,4.99,0.00,21.8,20.3,00.0,30.7,23.5,13.1,0000.0,0007.59,0003.88,0003.55
2023-01-10 08:57:00,,0818.9,5.00,0.00,21.8,20.2,00.0,30.7,23.4,13.5,0000.0,0007.64,0003.86,0003.54
2023-01-10 08:58:00,,0818.8,5.00,0.00,21.7,19.9,00.0,30.7,23.3,14.3,0000.0,0007.73,0003.92,0003.60
2023-01-10 08:59:00,,0819.0,5.01,0.00,21.7,20.2,00.0,30.7,23.3,14.5,0000.0,0007.86,0004.01,0003.68
